Location: Le Vaud
(46.4779°N, 6.2346°E)
Time: 05:37:33
(UTC+00:00)

Meteor 1-31 Rocket - Pass Details

Date: 18 February 2020
Orbit: 522 x 546 km, 97.6° (Epoch: 28 March)

Event Time Altitude Azimuth Distance (km) Brightness Sun altitude
Rises 05:28:50 0° 357° (N) 2,665 6.2 -12.0°
Reaches altitude 10° 05:31:30 10° 337° (NNW) 1,772 5.1 -11.5°
Maximum altitude 05:33:59 17° 296° (WNW) 1,390 4.3 -11.1°
Enters shadow 05:34:45 16° 281° (WNW) 1,430 4.3 -11.0°
